Weather reports worldwide

Advertisment
Lyon/Satolas, France (7481): temperature & dewpoint: 10.06.2019 13:00:00 - 16.06.2019 13:00:00 (CEST)Lyon/Satolas, France (7481): temperature 5cm: 10.06.2019 13:00:00 - 16.06.2019 13:00:00 (CEST)Lyon/Satolas, France (7481): temperature -20cm & temperature -100cm: 10.06.2019 13:00:00 - 16.06.2019 13:00:00 (CEST)Lyon/Satolas, France (7481): wind speed & gusts: 10.06.2019 13:00:00 - 16.06.2019 13:00:00 (CEST)Lyon/Satolas, France (7481): wind direction: 10.06.2019 13:00:00 - 16.06.2019 13:00:00 (CEST)Lyon/Satolas, France (7481): reduced air pressure: 10.06.2019 13:00:00 - 16.06.2019 13:00:00 (CEST)Lyon/Satolas, France (7481): visibility: 10.06.2019 13:00:00 - 16.06.2019 13:00:00 (CEST)Lyon/Satolas, France (7481): precipitation: 10.06.2019 13:00:00 - 16.06.2019 13:00:00 (CEST)
Date & Time tt [°C] td [°C] tt 5cm [°C] tt -20cm [°C] tt -100cm [°C] ff [km/h] ff [kn] fx [km/h] fx [kn] dd ppp [hPa] vv [km] rr [mm]
16.06.2019 13:00:00 20,2 11,9 24,7 19,3 17,9 24 13 35 19 N 1020,9 30 0,0
16.06.2019 12:00:00 19,5 12,3 23,5 18,9 17,9 22 12 39 21 N 1021,4 30 0,2
16.06.2019 11:00:00 18,6 12,8 23,9 18,6 17,9 20 11 29 16 NNW 1021,8 30 0,0
16.06.2019 10:00:00 17,4 13,1 23,9 18,4 17,9 17 9 26 14 N 1022,0 20 0,0
16.06.2019 09:00:00 16,2 12,6 20,5 18,4 17,9 16 8 23 13 N 1022,3 20 0,0
16.06.2019 08:00:00 14,8 14,2 13,8 18,4 17,9 10 6 16 8 NNW 1022,2 20 0,0
16.06.2019 07:00:00 12,7 12,7 9,8 18,6 17,8 0 0 4 2 N 1022,5 0,5 0,0
16.06.2019 06:00:00 12,6 12,6 9,3 18,8 17,8 0 0 3 2 N 1022,4 4,0 0,0
16.06.2019 05:00:00 12,6 12,3 10,8 19,0 17,8 0 0 5 3 N 1022,1 6 0,0
16.06.2019 04:00:00 13,2 12,6 9,8 19,2 17,8 3 2 4 2 WNW 1022,0 0,2 0,0
16.06.2019 03:00:00 13,8 12,5 11,2 19,3 17,8 0 0 9 5 N 1021,9 20 0,0
16.06.2019 02:00:00 14,4 13,4 12,9 19,5 17,8 8 5 20 11 W 1021,8 20 0,0
16.06.2019 01:00:00 15,3 14,5 14,0 19,6 17,8 5 3 14 7 WNW 1021,5 12 0,0
16.06.2019 00:00:00 15,9 14,9 15,4 19,7 17,8 8 4 16 9 NW 1021,5 6 0,0
15.06.2019 23:00:00 16,2 14,7 15,9 19,8 17,8 3 2 8 4 NNW 1021,2 50 0,0
15.06.2019 22:00:00 16,4 14,8 16,0 19,9 17,8 3 2 5 3 NW 1020,3 50 0,0
15.06.2019 21:00:00 17,0 13,7 16,1 20,0 17,7 3 2 8 5 ESE 1019,7 50 0,0
15.06.2019 20:00:00 17,9 13,4 17,6 19,9 17,7 6 4 16 9 S 1019,4 50 0,0
15.06.2019 19:00:00 16,8 13,5 17,6 19,9 17,8 13 7 29 16 SSE 1019,5 50 0,0
15.06.2019 18:00:00 17,1 14,9 14,6 19,8 17,7 13 7 39 21 E 1018,7 30 0,6
15.06.2019 17:00:00 14,7 14,2 14,4 20,1 17,7 14 7 49 27 NE 1018,6 12 4,0
15.06.2019 16:00:00 14,9 14,4 12,8 20,6 17,7 26 14 54 29 W 1019,3 9 20,6
15.06.2019 15:00:00 14,8 12,8 14,2 21,2 17,7 54 29 80 43 WSW 1017,9 0,1 16,0
15.06.2019 14:00:00 21,5 13,9 23,6 20,7 17,7 19 10 30 16 N 1015,7 50 0,0
15.06.2019 13:00:00 22,0 14,1 27,6 20,2 17,7 16 9 27 14 N 1015,7 50 0,0
15.06.2019 12:00:00 20,9 14,8 27,4 19,8 17,7 13 7 20 11 N 1016,7 50 0,0
15.06.2019 11:00:00 19,7 14,9 24,4 19,4 17,7 9 5 19 10 N 1017,0 50 0,0
15.06.2019 10:00:00 18,8 15,5 21,9 19,2 17,7 6 3 13 7 N 1017,3 40 0,0
15.06.2019 09:00:00 16,5 15,5 19,1 19,2 17,7 6 3 16 9 W 1017,4 30 0,0
15.06.2019 08:00:00 15,8 15,8 15,4 19,3 17,7 0 0 11 6 N 1016,8 15 0,0
15.06.2019 07:00:00 14,9 14,9 14,7 19,4 17,7 6 4 10 5 WNW 1016,2 20 0,0
15.06.2019 06:00:00 14,9 14,9 14,5 19,5 17,7 4 2 10 5 WNW 1016,0 20 0,0
15.06.2019 05:00:00 15,0 15,0 14,7 19,7 17,7 3 2 9 5 ESE 1015,7 20 1,4
15.06.2019 04:00:00 15,0 14,8 14,6 19,9 17,7 5 3 10 5 SE 1015,6 20 0,0
15.06.2019 03:00:00 15,0 14,8 14,7 20,1 17,7 6 4 23 12 NE 1015,6 7 3,3
15.06.2019 02:00:00 15,8 15,5 15,4 20,3 17,7 6 3 14 7 E 1015,3 10 2,8
15.06.2019 01:00:00 16,0 15,2 15,6 20,5 17,7 10 6 49 26 W 1015,3 3,5 6,8
15.06.2019 00:00:00 17,8 15,1 17,2 20,7 17,7 7 4 22 12 N 1013,1 30 0,0
14.06.2019 23:00:00 18,1 15,0 17,4 20,8 17,7 11 6 17 9 NW 1012,4 30 0,0
14.06.2019 22:00:00 18,4 15,5 17,8 21,0 17,6 4 2 14 8 N 1011,2 30 0,0
14.06.2019 21:00:00 18,9 15,6 18,5 21,1 17,6 11 6 26 14 N 1010,3 30 0,0
14.06.2019 20:00:00 19,6 14,8 19,8 21,1 17,6 17 9 29 15 NNW 1009,4 30 0,0
14.06.2019 19:00:00 19,4 16,1 21,0 20,9 17,6 21 11 35 19 NNW 1008,9 30 0,0
14.06.2019 18:00:00 21,1 16,9 24,1 20,5 17,6 16 9 23 13 WNW 1009,7 30 0,0
14.06.2019 17:00:00 22,1 16,1 26,0 20,0 17,6 7 4 16 9 WNW 1010,3 30 0,0
14.06.2019 16:00:00 21,0 16,2 27,3 19,5 17,6 8 5 16 9 NW 1011,3 30 0,0
14.06.2019 15:00:00 19,6 14,8 26,4 19,0 17,6 5 3 16 9 N 1012,2 30 0,0
14.06.2019 14:00:00 17,2 14,5 16,0 18,8 17,6 9 5 21 11 N 1013,6 30 0,0
14.06.2019 13:00:00 15,5 14,4 14,9 18,8 17,6 2 1 13 7 W 1015,6 14 0,2
14.06.2019 12:00:00 15,0 14,0 14,4 18,9 17,6 6 3 15 8 W 1015,5 14 0,8
14.06.2019 11:00:00 14,9 13,8 14,2 18,9 17,5 7 4 18 10 ENE 1015,5 16 1,8
14.06.2019 10:00:00 15,3 13,5 14,4 19,0 17,5 9 5 27 14 ESE 1016,6 9 1,2
14.06.2019 09:00:00 15,5 12,8 14,0 19,1 17,5 7 4 13 7 NE 1016,4 20 1,0
14.06.2019 08:00:00 16,8 10,6 13,9 19,3 17,5 5 3 17 9 WSW 1015,9 15 0,2
14.06.2019 07:00:00 17,3 11,1 14,1 19,5 17,5 8 5 19 10 SSE 1013,2 18 0,2
14.06.2019 06:00:00 19,8 6,5 18,1 19,6 17,5 10 5 25 14 SE 1012,6 40 0,0
14.06.2019 05:00:00 19,9 6,9 18,0 19,8 17,5 16 9 29 15 SE 1012,3 40 0,0
14.06.2019 04:00:00 20,0 6,7 18,2 20,0 17,5 10 6 16 9 SSE 1012,1 50 0,0
14.06.2019 03:00:00 19,0 8,3 17,8 20,2 17,5 14 7 31 17 ESE 1012,3 60 0,0
14.06.2019 02:00:00 19,6 8,0 18,0 20,5 17,5 19 11 27 15 SE 1012,6 60 0,0
14.06.2019 01:00:00 19,9 7,9 17,6 20,7 17,5 15 8 27 15 SSE 1013,1 60 0,0
14.06.2019 00:00:00 21,6 6,3 18,7 20,9 17,5 14 8 26 14 SE 1012,8 60 0,0
13.06.2019 23:00:00 21,2 4,7 15,2 21,3 17,5 9 5 21 11 ESE 1012,7 60 0,0
13.06.2019 22:00:00 22,3 4,3 18,3 21,6 17,5 14 8 27 14 S 1012,3 60 0,0
13.06.2019 21:00:00 24,2 2,3 23,2 21,8 17,5 20 11 32 17 SSW 1011,3 60 0,0
13.06.2019 20:00:00 25,4 3,9 28,0 22,0 17,5 16 9 41 22 S 1011,2 60 0,0
13.06.2019 19:00:00 26,0 5,0 27,7 22,1 17,5 27 14 45 25 S 1011,0 60 0,0
13.06.2019 18:00:00 26,1 4,5 31,4 21,8 17,5 28 15 38 21 S 1011,3 60 0,0
13.06.2019 17:00:00 26,0 5,5 32,7 21,5 17,5 24 13 36 20 S 1011,7 60 0,0
13.06.2019 16:00:00 25,5 4,0 32,4 20,9 17,5 24 13 35 19 S 1012,1 60 0,0
13.06.2019 15:00:00 24,7 2,8 32,5 20,2 17,5 20 11 30 16 S 1012,8 40 0,0
13.06.2019 14:00:00 24,0 4,9 32,2 19,4 17,5 16 9 41 22 SSW 1013,5 40 0,0
13.06.2019 13:00:00 22,6 8,3 30,9 18,8 17,5 13 7 24 13 E 1013,8 40 0,0
13.06.2019 12:00:00 21,6 6,3 29,2 18,2 17,5 12 6 24 13 E 1014,4 40 0,0
13.06.2019 11:00:00 19,4 8,1 25,4 17,8 17,5 3 2 10 6 NE 1015,3 40 0,0
13.06.2019 10:00:00 17,3 8,4 25,7 17,6 17,5 4 2 12 7 SSW 1015,7 40 0,0
13.06.2019 09:00:00 15,3 7,8 22,7 17,7 17,5 3 1 8 4 SSE 1015,8 35 0,0
13.06.2019 08:00:00 13,4 8,0 16,6 17,8 17,5 4 2 8 4 S 1015,8 35 0,0
13.06.2019 07:00:00 11,1 8,0 7,7 18,0 17,5 4 2 14 7 S 1015,9 35 0,0
13.06.2019 06:00:00 10,2 7,3 8,2 18,3 17,5 13 7 19 10 SE 1015,9 35 0,0
13.06.2019 05:00:00 11,5 8,0 9,8 18,5 17,4 13 7 17 9 SE 1015,5 35 0,0
13.06.2019 04:00:00 12,8 7,7 10,1 18,8 17,5 9 5 11 6 SE 1015,5 35 0,0
13.06.2019 03:00:00 12,9 8,2 8,5 19,1 17,5 8 4 10 5 ESE 1015,6 33 0,0
13.06.2019 02:00:00 14,3 7,1 10,1 19,4 17,5 8 4 10 5 SSW 1015,6 48 0,0
13.06.2019 01:00:00 15,2 7,0 9,9 19,7 17,5 2 1 13 7 ESE 1015,4 40 0,0
13.06.2019 00:00:00 15,7 7,5 11,9 20,0 17,5 4 2 15 8 SW 1014,9 50 0,0
12.06.2019 23:00:00 16,6 6,4 13,4 20,3 17,5 5 3 15 8 WSW 1014,4 50 0,0
12.06.2019 22:00:00 18,0 5,2 15,5 20,5 17,5 12 7 21 11 W 1013,4 50 0,0
12.06.2019 21:00:00 19,6 4,1 19,2 20,7 17,5 10 5 21 11 W 1012,7 50 0,0
12.06.2019 20:00:00 20,2 8,2 20,0 20,9 17,6 9 5 27 14 WSW 1011,8 50 0,0
12.06.2019 19:00:00 21,6 8,1 20,5 20,9 17,5 18 10 27 15 WSW 1011,3 70 0,0
12.06.2019 18:00:00 20,9 7,1 22,3 20,7 17,6 11 6 26 14 SSW 1011,5 70 0,0
12.06.2019 17:00:00 21,7 6,0 25,1 20,2 17,6 14 7 27 15 SW 1011,6 70 0,0
12.06.2019 16:00:00 21,5 6,6 23,6 19,6 17,6 16 9 36 19 S 1011,5 70 0,0
12.06.2019 15:00:00 20,9 6,8 27,7 18,8 17,6 10 6 29 16 S 1011,6 70 0,0
12.06.2019 14:00:00 19,3 7,1 29,1 18,1 17,6 15 8 44 24 SSW 1012,1 70 0,0
12.06.2019 13:00:00 18,6 6,7 27,1 17,4 17,6 17 9 28 15 S 1012,6 70 0,0
12.06.2019 12:00:00 17,3 7,1 20,4 17,0 17,7 14 7 29 16 S 1012,9 70 0,0
12.06.2019 11:00:00 16,1 7,3 21,6 16,6 17,7 16 8 25 14 S 1012,8 70 0,0
12.06.2019 10:00:00 14,9 8,8 20,8 16,4 17,7 13 7 20 11 S 1013,1 70 0,0
12.06.2019 09:00:00 13,5 11,0 17,3 16,4 17,7 9 5 18 10 SSE 1013,3 70 0,0
12.06.2019 08:00:00 12,2 10,8 14,7 16,5 17,7 9 5 14 8 SSE 1013,2 70 0,0
12.06.2019 07:00:00 11,0 10,7 9,8 16,6 17,7 5 3 11 6 SE 1013,0 50 0,0
12.06.2019 06:00:00 10,8 10,3 10,1 16,7 17,7 8 4 11 6 E 1013,0 20 0,2
12.06.2019 05:00:00 11,0 10,4 10,5 16,9 17,8 4 2 9 5 SSE 1013,2 9 2,0
12.06.2019 04:00:00 11,5 11,0 11,1 17,0 17,8 8 4 13 7 SSW 1012,6 6 3,4
12.06.2019 03:00:00 11,8 11,2 11,1 17,2 17,8 7 4 15 8 SSW 1012,5 7 2,8
12.06.2019 02:00:00 12,3 11,8 11,9 17,3 17,8 4 2 6 4 S 1011,9 2,8 1,2
12.06.2019 01:00:00 12,3 11,7 11,9 17,5 17,8 2 1 11 6 ENE 1011,7 7 1,0
12.06.2019 00:00:00 12,6 12,0 12,1 17,6 17,8 10 5 19 10 S 1012,1 12 0,2
11.06.2019 23:00:00 12,6 12,0 12,3 17,8 17,9 12 7 18 10 SSE 1012,1 12 0,4
11.06.2019 22:00:00 13,0 12,4 12,6 17,9 17,9 13 7 18 10 SE 1011,9 9 0,8
11.06.2019 21:00:00 13,4 12,6 13,0 17,9 17,9 9 5 14 7 ESE 1011,7 9 0,8
11.06.2019 20:00:00 13,6 12,5 13,4 17,9 17,9 6 3 12 7 E 1011,4 20 0,0
11.06.2019 19:00:00 14,1 12,5 14,3 17,9 17,9 6 3 12 6 ESE 1011,5 25 0,0
11.06.2019 18:00:00 14,1 12,5 13,9 17,9 17,9 8 4 11 6 ESE 1011,5 20 0,2
11.06.2019 17:00:00 13,8 11,8 13,7 17,9 17,9 8 4 13 7 ESE 1011,9 20 0,2
11.06.2019 16:00:00 14,2 11,5 14,8 17,8 17,9 4 2 8 5 ESE 1012,0 30 0,0
11.06.2019 15:00:00 14,3 11,3 15,7 17,6 17,9 3 2 9 5 NW 1011,8 15 0,0
11.06.2019 14:00:00 14,0 11,0 16,7 17,4 18,0 4 2 10 5 NNE 1011,8 29 0,0
11.06.2019 13:00:00 13,8 11,1 15,2 17,2 18,0 3 2 10 6 NNE 1012,1 40 0,0
11.06.2019 12:00:00 13,6 10,4 15,7 17,1 18,0 6 3 14 8 NNW 1012,4 40 0,0
11.06.2019 11:00:00 12,7 10,9 12,7 17,1 18,0 9 5 15 8 NNW 1012,5 40 0,0
11.06.2019 10:00:00 12,4 10,6 12,4 17,1 18,0 8 4 18 10 NNW 1012,1 40 0,2
11.06.2019 09:00:00 12,4 12,1 12,5 17,1 18,0 8 4 12 6 WNW 1012,2 8 0,4
11.06.2019 08:00:00 12,3 12,3 11,9 17,2 18,0 5 3 14 8 WNW 1011,9 18 0,0
11.06.2019 07:00:00 11,9 11,7 11,6 17,2 18,1 0 0 5 3 N 1012,1 12 0,0
11.06.2019 06:00:00 11,8 11,6 11,5 17,4 18,1 0 0 6 4 N 1012,3 12 0,0
11.06.2019 05:00:00 11,9 11,6 11,5 17,5 18,1 0 0 7 4 N 1012,7 12 1,0
11.06.2019 04:00:00 11,9 11,6 11,6 17,6 18,1 4 2 12 6 W 1013,3 15 0,2
11.06.2019 03:00:00 11,9 11,3 11,3 17,7 18,1 6 3 8 5 WSW 1013,9 15 0,6
11.06.2019 02:00:00 11,9 10,6 11,3 17,8 18,1 3 2 21 11 SW 1014,1 40 0,0
11.06.2019 01:00:00 11,8 10,4 11,2 18,0 18,2 5 3 10 6 WSW 1014,3 40 0,0
11.06.2019 00:00:00 11,8 10,2 11,1 18,1 18,1 6 4 16 9 W 1014,2 40 0,0
10.06.2019 23:00:00 11,9 10,5 11,2 18,2 18,1 6 3 16 8 W 1014,7 30 0,0
10.06.2019 22:00:00 12,0 10,1 11,1 18,4 18,2 10 5 24 13 NNE 1014,6 20 0,4
10.06.2019 21:00:00 12,7 10,4 11,5 18,5 18,2 17 9 25 14 N 1015,2 10 0,0
10.06.2019 20:00:00 13,0 13,0 12,9 18,6 18,2 13 7 21 12 N 1015,0 3,0 1,4
10.06.2019 19:00:00 13,6 13,6 13,5 18,6 18,2 13 7 27 15 N 1014,7 3,0 1,2
10.06.2019 18:00:00 13,6 13,0 13,5 18,7 18,2 20 11 39 21 N 1014,4 6 0,8
10.06.2019 17:00:00 15,7 14,6 15,7 18,7 18,2 7 4 13 7 NE 1013,8 10 0,0
10.06.2019 16:00:00 15,4 14,6 15,1 18,7 18,2 6 4 10 5 NNE 1013,7 10 0,2
10.06.2019 15:00:00 15,5 14,9 15,2 18,7 18,3 2 1 9 5 ENE 1014,4 10 0,8
10.06.2019 14:00:00 15,6 14,6 15,2 18,6 18,2 0 0 13 7 N 1014,4 4,0 1,2
10.06.2019 13:00:00 15,5 15,5 15,3 18,6 18,3 4 2 13 7 ENE 1014,4 6 0,6

tt = temperature
td = dewpoint
tt 5cm = temperature 5cm
tt -20cm = temperature -20cm
tt -100cm = temperature -100cm
ff = wind speed
fx = gusts
dd = wind direction
ppp = reduced air pressure
vv = visibility
rr = precipitation

Next stations